Location: Frydek-Mistek
(49.6830°N, 18.3330°E)
Time: 14:03:54
(UTC+02:00)

ISS - Pass Details

Date: 25 April 2026
Orbit: 414 x 424 km, 51.6° (Epoch: 18 May)

Event Time Altitude Azimuth Distance (km) Brightness Sun altitude
Exits shadow 03:11:58 28° 135° (SE) 821 -2.4 -19.3°
Drops below altitude 10° 03:14:38 10° 84° (E) 1,503 -0.3 -19.1°
Sets 03:16:54 0° 73° (ENE) 2,373 1.0 -18.8°
